STARLINK-34944 (65182 NORAD) Tracking and Keplerian Element Data

This shows tracking and keplerian element data for the satellite.

Feedback or suggestion? Click here.




ElementValue
Catalog65182
NameSTARLINK-34944
Epoch Orbit2067
Epoch Day354.1708525
Epoch Year2025
RAAN224.2549
Inclination97.6046
Eccentricity0.000315
Argument of Perigee75.7712
Mean Anonmoly284.3864
Mean Motion15.05629523
Decay Rate8.09E-06
L11 65182U 25175J 25354.17085250 .00000809 00000+0 60343-4 0 9995
L22 65182 97.6046 224.2549 0003150 75.7712 284.3864 15.05629523 20670



Live tracking and technical data element details for STARLINK-34944 (NORAD 65182). STARLINK-34944 can be tracked NOW for your location showing map with azimuth and elevation plus other details from your city location.







IsCatalogInMostPopularTable: catalog: 65182, numindb: 3
Update: records affected: 1



GetName: 65182 STARLINK-34944

Hit Count: updated at: Sat, 07 Feb 2026 08:57:07 GMT